COSMOS 2491 DEB, 57554

Orbit data source: Space-Track

COSMOS 2491 DEB, 57554 is space debris in LEO originally from a launch on Wed, 25 Dec 2013 UTC launched from the Plesetsk Missile And Space Complex (PKMTR). Debris objects in space refer to the collection of defunct objects orbiting the Earth. Examples of debris include non-operational satellites, rocket bodies, and fragments generated from explosions, collisions, or faulty payload assembly.

Loading next visibility...
Identifier
57554, 2013-076AR
Orbit
LEO
Country
Flag of CISCIS
Related business
Manufacturer
TsNIIKhM
Mission
Spacecraft
Bus & Motor
Unknown
Mass
Unknown
Launch date (UTC)
2013-12-25 (12 years ago)
Launch vehicle
Unknown
Launch site
Plesetsk Missile And Space Complex (PKMTR)
Object type
Payload
Rocket body
Debris
Shape & HBR
Unknown shape, 0.1 m
Radar Cross Section
Small (<0.1 m²)

Expand to show TLE details & history
Last TLE update: 4 weeks ago

TLE from 4 weeks ago
0 COSMOS 2491 DEB
1 57554U 13076AR  26148.31137206  .00001375  00000-0  89771-2 0  9997
2 57554  82.4819 170.0987 0021660  51.0688 309.2322 12.50004898139073
Epoch: 2026-05-28T07:28Z
TLE epoch observation values (Epoch: 2026-05-28T07:28:22.545Z)
Latitude
-0.00007°
Longitude
172.14683°
Altitude
1,456.461 km
Speed
7.139 km/s
True Right ascension
11h 20m 23s
True Declination
0° 00' 00"
Sunlit
Object was in daylight at epoch
Visualization orbit readout
Latitude
Unknown
Longitude
Unknown
Altitude
Unknown
Speed
Unknown
Apparent Right ascension
Unknown
Apparent Declination
Unknown
Sunlit
N/A
Visualization observer readout
Local Sidereal Time
21:41:12
Azimuth
Unknown
Elevation
Unknown
Doppler factor
Unknown
Orbital elements
Apogee altitude
1,478.798 km
Perigee altitude
1,444.835 km
Semi-major axis
7,839.953 km
Eccentricity
0.00217
Inclination
82.4819°
RAAN
170.0987°
Arg. of periapsis
51.0688°
True anomaly
309.03961°
Mean anomaly
309.2322°
Eccentric anomaly
309.13594°
Mean motion
3.1266 °/min
Orbital period
115.14 mins
BSTAR
0.0089771
Loading maneuver chart data...
Computing Atmospheric mass density...
Loading historical data...
Loading historical data...
Loading historical data...
Loading historical data...
Loading historical data...
Loading historical data...
Loading historical data...

Documentation

Showing up to 5 results
|